Hourly Data Report for February 23, 2017

All times are specified in Local Standard Time (LST). Add 1 hour to adjust for Daylight Saving Time where and when it is observed.

TORONTO CITY
ONTARIO

43°40'00.000" N
79°24'00.000" W
112.50 m
6158355
71508
XTO

Download Data

Hourly Data (February 2017)
Hourly Data Report for February 23, 2017
TIME Temp Definition
°C
Dew Point Definition
°C
Rel Hum Definition
%
Wind Dir Definition
10's deg

Wind Spd Definition
km/h
Visibility Definition
km
Stn Press Definition
kPa
Hmdx Definition


Wind Chill Definition


Weather Definition


00:00 9.2 7.6 90 LegendMM LegendMM   99.24     LegendNANA
01:00 9.8 8.3 90 LegendMM LegendMM   99.19     LegendNANA
02:00 10.5 8.4 87 LegendMM LegendMM   99.18     LegendNANA
03:00 10.6 8.5 87 LegendMM LegendMM   99.12     LegendNANA
04:00 10.6 8.7 88 LegendMM LegendMM   99.08     LegendNANA
05:00 10.8 8.7 87 LegendMM LegendMM   99.03     LegendNANA
06:00 11.2 8.8 85 LegendMM LegendMM   99.00     LegendNANA
07:00 10.8 8.6 87 LegendMM LegendMM   98.95     LegendNANA
08:00 10.6 8.5 87 LegendMM LegendMM   98.96     LegendNANA
09:00 11.5 9.3 86 LegendMM LegendMM   98.93     LegendNANA
10:00 11.4 8.9 85 LegendMM LegendMM   98.95     LegendNANA
11:00 12.6 9.4 80 LegendMM LegendMM   98.96     LegendNANA
12:00 14.6 9.8 73 LegendMM LegendMM   99.00     LegendNANA
13:00 17.4 8.0 54 LegendMM LegendMM   98.97     LegendNANA
14:00 18.1 4.6 41 LegendMM LegendMM   99.02     LegendNANA
15:00 16.6 6.9 53 LegendMM LegendMM   99.16     LegendNANA
16:00 12.9 5.3 60 LegendMM LegendMM   99.34     LegendNANA
17:00 11.4 3.8 59 LegendMM LegendMM   99.46     LegendNANA
18:00 10.0 3.8 65 LegendMM LegendMM   99.56     LegendNANA
19:00 8.4 3.2 70 LegendMM LegendMM   99.67     LegendNANA
20:00 7.5 2.9 73 LegendMM LegendMM   99.72     LegendNANA
21:00 7.1 2.7 74 LegendMM LegendMM   99.76     LegendNANA
22:00 6.8 3.1 78 LegendMM LegendMM   99.78     LegendNANA
23:00 6.2 3.0 80 LegendMM LegendMM   99.82     LegendNANA

Notes on Data Quality.

Legend

  • E = Estimated
  • M = Missing
  • NA = Not Available
Date modified: